Volver al catálogo

STARLINK-30496

ActivoComunicacionesVLEO
NORAD 57919·PAYLOAD·🇺🇸 United States

Lanzado Sep 24, 2023 desde Cape Canaveral Space Force Station

Loading…

Próximos Pases (próximas 24 horas)

TLE

ActualizadoSource: CelesTrak SupGP

Época: Sep 14, 2026, 21:18 UTC

1 57919C 23147G   26257.88798611 -.00020192  00000+0 -73130-3 0  2577
2 57919  43.0029 336.7221 0001666 270.7996  79.7756 15.27590135    14

Sigue STARLINK-30496 en tiempo real con AllMySat

Download on the App Store